Year,Month,Day,Hour,Minute,Value (Times are PST for temperature in C)
2016,07,26,00,00,19.60
2016,07,26,00,01,19.70
2016,07,26,00,02,19.70
2016,07,26,00,03,19.70
2016,07,26,00,04,19.70
2016,07,26,00,05,19.80
2016,07,26,00,06,19.80
2016,07,26,00,07,19.90
2016,07,26,00,08,20.00
2016,07,26,00,09,20.10
2016,07,26,00,10,20.20
2016,07,26,00,11,20.30
2016,07,26,00,12,20.40
2016,07,26,00,13,20.50
2016,07,26,00,14,20.60
2016,07,26,00,15,20.60
2016,07,26,00,16,20.70
2016,07,26,00,17,20.80
2016,07,26,00,18,20.80
2016,07,26,00,19,20.80
2016,07,26,00,20,20.90
2016,07,26,00,21,20.90
2016,07,26,00,22,20.90
2016,07,26,00,23,20.90
2016,07,26,00,24,21.00
2016,07,26,00,25,21.00
2016,07,26,00,26,21.00
2016,07,26,00,27,21.10
2016,07,26,00,28,21.10
2016,07,26,00,29,21.10
2016,07,26,00,30,21.10
2016,07,26,00,31,21.10
2016,07,26,00,32,21.10
2016,07,26,00,33,21.20
2016,07,26,00,34,21.20
2016,07,26,00,35,21.20
2016,07,26,00,36,21.20
2016,07,26,00,37,21.20
2016,07,26,00,38,21.20
2016,07,26,00,39,21.20
2016,07,26,00,40,21.20
2016,07,26,00,41,21.20
2016,07,26,00,42,21.20
2016,07,26,00,43,21.20
2016,07,26,00,44,21.20
2016,07,26,00,45,21.20
2016,07,26,00,46,21.20
2016,07,26,00,47,21.20
2016,07,26,00,48,21.20
2016,07,26,00,49,21.20
2016,07,26,00,50,21.20
2016,07,26,00,51,21.20
2016,07,26,00,52,21.20
2016,07,26,00,53,21.20
2016,07,26,00,54,21.20
2016,07,26,00,55,21.20
2016,07,26,00,56,21.20
2016,07,26,00,57,21.10
2016,07,26,00,58,21.10
2016,07,26,00,59,21.10
2016,07,26,01,00,21.10
2016,07,26,01,01,21.10
2016,07,26,01,02,21.10
2016,07,26,01,03,21.10
2016,07,26,01,04,21.10
2016,07,26,01,05,21.00
2016,07,26,01,06,21.00
2016,07,26,01,07,21.00
2016,07,26,01,08,21.00
2016,07,26,01,09,21.00
2016,07,26,01,10,20.90
2016,07,26,01,11,20.90
2016,07,26,01,12,20.90
2016,07,26,01,13,20.90
2016,07,26,01,14,20.90
2016,07,26,01,15,20.90
2016,07,26,01,16,20.90
2016,07,26,01,17,20.90
2016,07,26,01,18,20.80
2016,07,26,01,19,20.80
2016,07,26,01,20,20.80
2016,07,26,01,21,20.80
2016,07,26,01,22,20.80
2016,07,26,01,23,20.80
2016,07,26,01,24,20.80
2016,07,26,01,25,20.80
2016,07,26,01,26,20.70
2016,07,26,01,27,20.70
2016,07,26,01,28,20.70
2016,07,26,01,29,20.70
2016,07,26,01,30,20.60
2016,07,26,01,31,20.60
2016,07,26,01,32,20.60
2016,07,26,01,33,20.50
2016,07,26,01,34,20.50
2016,07,26,01,35,20.50
2016,07,26,01,36,20.40
2016,07,26,01,37,20.40
2016,07,26,01,38,20.30
2016,07,26,01,39,20.30
2016,07,26,01,40,20.30
2016,07,26,01,41,20.30
2016,07,26,01,42,20.20
2016,07,26,01,43,20.20
2016,07,26,01,44,20.20
2016,07,26,01,45,20.20
2016,07,26,01,46,20.20
2016,07,26,01,47,20.10
2016,07,26,01,48,20.10
2016,07,26,01,49,20.10
2016,07,26,01,50,20.10
2016,07,26,01,51,20.10
2016,07,26,01,52,20.00
2016,07,26,01,53,20.00
2016,07,26,01,54,20.00
2016,07,26,01,55,19.90
2016,07,26,01,56,19.90
2016,07,26,01,57,19.90
2016,07,26,01,58,19.90
2016,07,26,01,59,19.80
2016,07,26,02,00,19.80
2016,07,26,02,01,19.80
2016,07,26,02,02,19.80
2016,07,26,02,03,19.80
2016,07,26,02,04,19.80
2016,07,26,02,05,19.80
2016,07,26,02,06,19.80
2016,07,26,02,07,19.80
2016,07,26,02,08,19.80
2016,07,26,02,09,19.70
2016,07,26,02,10,19.70
2016,07,26,02,11,19.70
2016,07,26,02,12,19.70
2016,07,26,02,13,19.70
2016,07,26,02,14,19.70
2016,07,26,02,15,19.70
2016,07,26,02,16,19.70
2016,07,26,02,17,19.70
2016,07,26,02,18,19.60
2016,07,26,02,19,19.60
2016,07,26,02,20,19.60
2016,07,26,02,21,19.50
2016,07,26,02,22,19.40
2016,07,26,02,23,19.40
2016,07,26,02,24,19.40
2016,07,26,02,25,19.30
2016,07,26,02,26,19.30
2016,07,26,02,27,19.30
2016,07,26,02,28,19.30
2016,07,26,02,29,19.20
2016,07,26,02,30,19.20
2016,07,26,02,31,19.20
2016,07,26,02,32,19.20
2016,07,26,02,33,19.20
2016,07,26,02,34,19.20
2016,07,26,02,35,19.20
2016,07,26,02,36,19.20
2016,07,26,02,37,19.20
2016,07,26,02,38,19.20
2016,07,26,02,39,19.20
2016,07,26,02,40,19.20
2016,07,26,02,41,19.20
2016,07,26,02,42,19.20
2016,07,26,02,43,19.20
2016,07,26,02,44,19.20
2016,07,26,02,45,19.20
2016,07,26,02,46,19.10
2016,07,26,02,47,19.10
2016,07,26,02,48,19.10
2016,07,26,02,49,19.00
2016,07,26,02,50,19.00
2016,07,26,02,51,18.90
2016,07,26,02,52,18.90
2016,07,26,02,53,18.80
2016,07,26,02,54,18.80
2016,07,26,02,55,18.70
2016,07,26,02,56,18.70
2016,07,26,02,57,18.60
2016,07,26,02,58,18.60
2016,07,26,02,59,18.60
2016,07,26,03,00,18.50
2016,07,26,03,01,18.50
2016,07,26,03,02,18.50
2016,07,26,03,03,18.40
2016,07,26,03,04,18.40
2016,07,26,03,05,18.40
2016,07,26,03,06,18.30
2016,07,26,03,07,18.30
2016,07,26,03,08,18.30
2016,07,26,03,09,18.30
2016,07,26,03,10,18.30
2016,07,26,03,11,18.30
2016,07,26,03,12,18.30
2016,07,26,03,13,18.30
2016,07,26,03,14,18.30
2016,07,26,03,15,18.30
2016,07,26,03,16,18.30
2016,07,26,03,17,18.30
2016,07,26,03,18,18.30
2016,07,26,03,19,18.30
2016,07,26,03,20,18.30
2016,07,26,03,21,18.30
2016,07,26,03,22,18.30
2016,07,26,03,23,18.20
2016,07,26,03,24,18.20
2016,07,26,03,25,18.20
2016,07,26,03,26,18.10
2016,07,26,03,27,18.10
2016,07,26,03,28,18.00
2016,07,26,03,29,17.90
2016,07,26,03,30,17.90
2016,07,26,03,31,17.90
2016,07,26,03,32,17.80
2016,07,26,03,33,17.80
2016,07,26,03,34,17.70
2016,07,26,03,35,17.70
2016,07,26,03,36,17.60
2016,07,26,03,37,17.60
2016,07,26,03,38,17.50
2016,07,26,03,39,17.50
2016,07,26,03,40,17.40
2016,07,26,03,41,17.40
2016,07,26,03,42,17.30
2016,07,26,03,43,17.30
2016,07,26,03,44,17.30
2016,07,26,03,45,17.30
2016,07,26,03,46,17.20
2016,07,26,03,47,17.20
2016,07,26,03,48,17.20
2016,07,26,03,49,17.20
2016,07,26,03,50,17.20
2016,07,26,03,51,17.10
2016,07,26,03,52,17.10
2016,07,26,03,53,17.10
2016,07,26,03,54,17.10
2016,07,26,03,55,17.10
2016,07,26,03,56,17.10
2016,07,26,03,57,17.20
2016,07,26,03,58,17.20
2016,07,26,03,59,17.20
2016,07,26,04,00,17.20
2016,07,26,04,01,17.20
2016,07,26,04,02,17.20
2016,07,26,04,03,17.20
2016,07,26,04,04,17.20
2016,07,26,04,05,17.20
2016,07,26,04,06,17.20
2016,07,26,04,07,17.20
2016,07,26,04,08,17.20
2016,07,26,04,09,17.10
2016,07,26,04,10,17.10
2016,07,26,04,11,17.10
2016,07,26,04,12,17.10
2016,07,26,04,13,17.10
2016,07,26,04,14,17.00
2016,07,26,04,15,17.00
2016,07,26,04,16,17.00
2016,07,26,04,17,16.90
2016,07,26,04,18,16.90
2016,07,26,04,19,16.90
2016,07,26,04,20,16.90
2016,07,26,04,21,16.80
2016,07,26,04,22,16.80
2016,07,26,04,23,16.80
2016,07,26,04,24,16.80
2016,07,26,04,25,16.70
2016,07,26,04,26,16.70
2016,07,26,04,27,16.70
2016,07,26,04,28,16.70
2016,07,26,04,29,16.60
2016,07,26,04,30,16.60
2016,07,26,04,31,16.60
2016,07,26,04,32,16.60
2016,07,26,04,33,16.60
2016,07,26,04,34,16.50
2016,07,26,04,35,16.50
2016,07,26,04,36,16.50
2016,07,26,04,37,16.50
2016,07,26,04,38,16.50
2016,07,26,04,39,16.50
2016,07,26,04,40,16.40
2016,07,26,04,41,16.40
2016,07,26,04,42,16.40
2016,07,26,04,43,16.40
2016,07,26,04,44,16.40
2016,07,26,04,45,16.40
2016,07,26,04,46,16.40
2016,07,26,04,47,16.30
2016,07,26,04,48,16.30
2016,07,26,04,49,16.30
2016,07,26,04,50,16.30
2016,07,26,04,51,16.30
2016,07,26,04,52,16.30
2016,07,26,04,53,16.20
2016,07,26,04,54,16.20
2016,07,26,04,55,16.20
2016,07,26,04,56,16.20
2016,07,26,04,57,16.20
2016,07,26,04,58,16.20
2016,07,26,04,59,16.20
2016,07,26,05,00,16.10
2016,07,26,05,01,16.10
2016,07,26,05,02,16.10
2016,07,26,05,03,16.10
2016,07,26,05,04,16.10
2016,07,26,05,05,16.10
2016,07,26,05,06,16.10
2016,07,26,05,07,16.10
2016,07,26,05,08,16.10
2016,07,26,05,09,16.10
2016,07,26,05,10,16.10
2016,07,26,05,11,16.10
2016,07,26,05,12,16.00
2016,07,26,05,13,16.00
2016,07,26,05,14,16.00
2016,07,26,05,15,16.00
2016,07,26,05,16,16.00
2016,07,26,05,17,15.90
2016,07,26,05,18,15.90
2016,07,26,05,19,15.90
2016,07,26,05,20,15.90
2016,07,26,05,21,15.80
2016,07,26,05,22,15.80
2016,07,26,05,23,15.80
2016,07,26,05,24,15.80
2016,07,26,05,25,15.80
2016,07,26,05,26,15.80
2016,07,26,05,27,15.80
2016,07,26,05,28,15.70
2016,07,26,05,29,15.70
2016,07,26,05,30,15.70
2016,07,26,05,31,15.70
2016,07,26,05,32,15.70
2016,07,26,05,33,15.70
2016,07,26,05,34,15.70
2016,07,26,05,35,15.60
2016,07,26,05,36,15.60
2016,07,26,05,37,15.60
2016,07,26,05,38,15.60
2016,07,26,05,39,15.60
2016,07,26,05,40,15.60
2016,07,26,05,41,15.60
2016,07,26,05,42,15.60
2016,07,26,05,43,15.60
2016,07,26,05,44,15.60
2016,07,26,05,45,15.50
2016,07,26,05,46,15.50
2016,07,26,05,47,15.50
2016,07,26,05,48,15.50
2016,07,26,05,49,15.50
2016,07,26,05,50,15.40
2016,07,26,05,51,15.40
2016,07,26,05,52,15.40
2016,07,26,05,53,15.40
2016,07,26,05,54,15.40
2016,07,26,05,55,15.40
2016,07,26,05,56,15.40
2016,07,26,05,57,15.40
2016,07,26,05,58,15.40
2016,07,26,05,59,15.30
2016,07,26,06,00,15.30
2016,07,26,06,01,15.30
2016,07,26,06,02,15.30
2016,07,26,06,03,15.30
2016,07,26,06,04,15.30
2016,07,26,06,05,15.30
2016,07,26,06,06,15.40
2016,07,26,06,07,15.40
2016,07,26,06,08,15.40
2016,07,26,06,09,15.40
2016,07,26,06,10,15.40
2016,07,26,06,11,15.40
2016,07,26,06,12,15.40
2016,07,26,06,13,15.40
2016,07,26,06,14,15.40
2016,07,26,06,15,15.40
2016,07,26,06,16,15.50
2016,07,26,06,17,15.50
2016,07,26,06,18,15.60
2016,07,26,06,19,15.60
2016,07,26,06,20,15.60
2016,07,26,06,21,15.70
2016,07,26,06,22,15.70
2016,07,26,06,23,15.80
2016,07,26,06,24,15.80
2016,07,26,06,25,15.90
2016,07,26,06,26,16.00
2016,07,26,06,27,16.10
2016,07,26,06,28,16.10
2016,07,26,06,29,16.20
2016,07,26,06,30,16.30
2016,07,26,06,31,16.30
2016,07,26,06,32,16.40
2016,07,26,06,33,16.50
2016,07,26,06,34,16.60
2016,07,26,06,35,16.60
2016,07,26,06,36,16.70
2016,07,26,06,37,16.70
2016,07,26,06,38,16.80
2016,07,26,06,39,16.80
2016,07,26,06,40,16.90
2016,07,26,06,41,16.90
2016,07,26,06,42,16.90
2016,07,26,06,43,17.00
2016,07,26,06,44,17.00
2016,07,26,06,45,17.10
2016,07,26,06,46,17.10
2016,07,26,06,47,17.10
2016,07,26,06,48,17.20
2016,07,26,06,49,17.20
2016,07,26,06,50,17.20
2016,07,26,06,51,17.30
2016,07,26,06,52,17.30
2016,07,26,06,53,17.30
2016,07,26,06,54,17.40
2016,07,26,06,55,17.40
2016,07,26,06,56,17.40
2016,07,26,06,57,17.50
2016,07,26,06,58,17.50
2016,07,26,06,59,17.60
2016,07,26,07,00,17.60
2016,07,26,07,01,17.70
2016,07,26,07,02,17.70
2016,07,26,07,03,17.70
2016,07,26,07,04,17.70
2016,07,26,07,05,17.80
2016,07,26,07,06,17.80
2016,07,26,07,07,17.80
2016,07,26,07,08,17.80
2016,07,26,07,09,17.80
2016,07,26,07,10,17.90
2016,07,26,07,11,17.90
2016,07,26,07,12,17.90
2016,07,26,07,13,18.00
2016,07,26,07,14,18.10
2016,07,26,07,15,18.10
2016,07,26,07,16,18.20
2016,07,26,07,17,18.20
2016,07,26,07,18,18.20
2016,07,26,07,19,18.30
2016,07,26,07,20,18.40
2016,07,26,07,21,18.40
2016,07,26,07,22,18.50
2016,07,26,07,23,18.50
2016,07,26,07,24,18.60
2016,07,26,07,25,18.70
2016,07,26,07,26,18.70
2016,07,26,07,27,18.70
2016,07,26,07,28,18.80
2016,07,26,07,29,18.80
2016,07,26,07,30,18.80
2016,07,26,07,31,18.80
2016,07,26,07,32,18.90
2016,07,26,07,33,18.90
2016,07,26,07,34,18.80
2016,07,26,07,35,18.80
2016,07,26,07,36,18.80
2016,07,26,07,37,18.90
2016,07,26,07,38,18.90
2016,07,26,07,39,19.00
2016,07,26,07,40,19.00
2016,07,26,07,41,19.10
2016,07,26,07,42,19.10
2016,07,26,07,43,19.00
2016,07,26,07,44,19.00
2016,07,26,07,45,19.00
2016,07,26,07,46,19.00
2016,07,26,07,47,19.00
2016,07,26,07,48,19.00
2016,07,26,07,49,19.00
2016,07,26,07,50,19.00
2016,07,26,07,51,19.00
2016,07,26,07,52,19.00
2016,07,26,07,53,19.10
2016,07,26,07,54,19.10
2016,07,26,07,55,19.00
2016,07,26,07,56,19.10
2016,07,26,07,57,19.10
2016,07,26,07,58,19.10
2016,07,26,07,59,19.10
2016,07,26,08,00,19.10
2016,07,26,08,01,19.10
2016,07,26,08,02,19.10
2016,07,26,08,03,19.10
2016,07,26,08,04,19.20
2016,07,26,08,05,19.20
2016,07,26,08,06,19.20
2016,07,26,08,07,19.20
2016,07,26,08,08,19.20
2016,07,26,08,09,19.20
2016,07,26,08,10,19.10
2016,07,26,08,11,19.10
2016,07,26,08,12,19.20
2016,07,26,08,13,19.20
2016,07,26,08,14,19.20
2016,07,26,08,15,19.20
2016,07,26,08,16,19.20
2016,07,26,08,17,19.30
2016,07,26,08,18,19.30
2016,07,26,08,19,19.30
2016,07,26,08,20,19.30
2016,07,26,08,21,19.30
2016,07,26,08,22,19.40
2016,07,26,08,23,19.30
2016,07,26,08,24,19.30
2016,07,26,08,25,19.20
2016,07,26,08,26,19.20
2016,07,26,08,27,19.20
2016,07,26,08,28,19.20
2016,07,26,08,29,19.30
2016,07,26,08,30,19.30
2016,07,26,08,31,19.30
2016,07,26,08,32,19.30
2016,07,26,08,33,19.30
2016,07,26,08,34,19.30
2016,07,26,08,35,19.30
2016,07,26,08,36,19.40
2016,07,26,08,37,19.40
2016,07,26,08,38,19.50
2016,07,26,08,39,19.50
2016,07,26,08,40,19.60
2016,07,26,08,41,19.50
2016,07,26,08,42,19.40
2016,07,26,08,43,19.40
2016,07,26,08,44,19.40
2016,07,26,08,45,19.30
2016,07,26,08,46,19.30
2016,07,26,08,47,19.30
2016,07,26,08,48,19.20
2016,07,26,08,49,19.20
2016,07,26,08,50,19.20
2016,07,26,08,51,19.20
2016,07,26,08,52,19.20
2016,07,26,08,53,19.20
2016,07,26,08,54,19.20
2016,07,26,08,55,19.20
2016,07,26,08,56,19.20
2016,07,26,08,57,19.20
2016,07,26,08,58,19.30
2016,07,26,08,59,19.30
2016,07,26,09,00,19.30
2016,07,26,09,01,19.30
2016,07,26,09,02,19.30
2016,07,26,09,03,19.30
2016,07,26,09,04,19.30
2016,07,26,09,05,19.40
2016,07,26,09,06,19.40
2016,07,26,09,07,19.40
2016,07,26,09,08,19.50
2016,07,26,09,09,19.40
2016,07,26,09,10,19.40
2016,07,26,09,11,19.40
2016,07,26,09,12,19.30
2016,07,26,09,13,19.30
2016,07,26,09,14,19.40
2016,07,26,09,15,19.40
2016,07,26,09,16,19.40
2016,07,26,09,17,19.40
2016,07,26,09,18,19.40
2016,07,26,09,19,19.40
2016,07,26,09,20,19.40
2016,07,26,09,21,19.50
2016,07,26,09,22,19.50
2016,07,26,09,23,19.50
2016,07,26,09,24,19.40
2016,07,26,09,25,19.40
2016,07,26,09,26,19.40
2016,07,26,09,27,19.40
2016,07,26,09,28,19.40
2016,07,26,09,29,19.50
2016,07,26,09,30,19.50
2016,07,26,09,31,19.50
2016,07,26,09,32,19.50
2016,07,26,09,33,19.50
2016,07,26,09,34,19.50
2016,07,26,09,35,19.50
2016,07,26,09,36,19.60
2016,07,26,09,37,19.60
2016,07,26,09,38,19.60
2016,07,26,09,39,19.60
2016,07,26,09,40,19.60
2016,07,26,09,41,19.60
2016,07,26,09,42,19.60
2016,07,26,09,43,19.60
2016,07,26,09,44,19.70
2016,07,26,09,45,19.70
2016,07,26,09,46,19.60
2016,07,26,09,47,19.60
2016,07,26,09,48,19.60
2016,07,26,09,49,19.70
2016,07,26,09,50,19.70
2016,07,26,09,51,19.70
2016,07,26,09,52,19.70
2016,07,26,09,53,19.60
2016,07,26,09,54,19.60
2016,07,26,09,55,19.60
2016,07,26,09,56,19.60
2016,07,26,09,57,19.60
2016,07,26,09,58,19.50
2016,07,26,09,59,19.50
2016,07,26,10,00,19.40
2016,07,26,10,01,19.40
2016,07,26,10,02,19.50
2016,07,26,10,03,19.50
2016,07,26,10,04,19.50
2016,07,26,10,05,19.50
2016,07,26,10,06,19.50
2016,07,26,10,07,19.40
2016,07,26,10,08,19.50
2016,07,26,10,09,19.50
2016,07,26,10,10,19.50
2016,07,26,10,11,19.50
2016,07,26,10,12,19.50
2016,07,26,10,13,19.40
2016,07,26,10,14,19.40
2016,07,26,10,15,19.40
2016,07,26,10,16,19.40
2016,07,26,10,17,19.30
2016,07,26,10,18,19.40
2016,07,26,10,19,19.40
2016,07,26,10,20,19.50
2016,07,26,10,21,19.50
2016,07,26,10,22,19.60
2016,07,26,10,23,19.60
2016,07,26,10,24,19.70
2016,07,26,10,25,19.70
2016,07,26,10,26,19.70
2016,07,26,10,27,19.70
2016,07,26,10,28,19.70
2016,07,26,10,29,19.70
2016,07,26,10,30,19.80
2016,07,26,10,31,19.80
2016,07,26,10,32,19.90
2016,07,26,10,33,19.90
2016,07,26,10,34,19.90
2016,07,26,10,35,19.90
2016,07,26,10,36,19.90
2016,07,26,10,37,19.90
2016,07,26,10,38,19.90
2016,07,26,10,39,19.90
2016,07,26,10,40,19.90
2016,07,26,10,41,19.80
2016,07,26,10,42,19.80
2016,07,26,10,43,19.80
2016,07,26,10,44,19.70
2016,07,26,10,45,19.70
2016,07,26,10,46,19.70
2016,07,26,10,47,19.70
2016,07,26,10,48,19.60
2016,07,26,10,49,19.70
2016,07,26,10,50,19.70
2016,07,26,10,51,19.70
2016,07,26,10,52,19.60
2016,07,26,10,53,19.60
2016,07,26,10,54,19.60
2016,07,26,10,55,19.50
2016,07,26,10,56,19.50
2016,07,26,10,57,19.40
2016,07,26,10,58,19.40
2016,07,26,10,59,19.50
2016,07,26,11,00,19.50
2016,07,26,11,01,19.60
2016,07,26,11,02,19.70
2016,07,26,11,03,19.70
2016,07,26,11,04,19.80
2016,07,26,11,05,19.80
2016,07,26,11,06,19.70
2016,07,26,11,07,19.70
2016,07,26,11,08,19.70
2016,07,26,11,09,19.80
2016,07,26,11,10,19.80
2016,07,26,11,11,19.80
2016,07,26,11,12,19.70
2016,07,26,11,13,19.70
2016,07,26,11,14,19.70
2016,07,26,11,15,19.60
2016,07,26,11,16,19.60
2016,07,26,11,17,19.60
2016,07,26,11,18,19.60
2016,07,26,11,19,19.60
2016,07,26,11,20,19.60
2016,07,26,11,21,19.60
2016,07,26,11,22,19.60
2016,07,26,11,23,19.60
2016,07,26,11,24,19.70
2016,07,26,11,25,19.70
2016,07,26,11,26,19.70
2016,07,26,11,27,19.60
2016,07,26,11,28,19.50
2016,07,26,11,29,19.50
2016,07,26,11,30,19.50
2016,07,26,11,31,19.50
2016,07,26,11,32,19.50
2016,07,26,11,33,19.50
2016,07,26,11,34,19.50
2016,07,26,11,35,19.50
2016,07,26,11,36,19.60
2016,07,26,11,37,19.60
2016,07,26,11,38,19.70
2016,07,26,11,39,19.70
2016,07,26,11,40,19.80
2016,07,26,11,41,19.90
2016,07,26,11,42,19.80
2016,07,26,11,43,19.90
2016,07,26,11,44,19.90
2016,07,26,11,45,20.00
2016,07,26,11,46,20.00
2016,07,26,11,47,20.10
2016,07,26,11,48,20.20
2016,07,26,11,49,20.30
2016,07,26,11,50,20.30
2016,07,26,11,51,20.40
2016,07,26,11,52,20.40
2016,07,26,11,53,20.40
2016,07,26,11,54,20.30
2016,07,26,11,55,20.20
2016,07,26,11,56,20.10
2016,07,26,11,57,20.00
2016,07,26,11,58,19.90
2016,07,26,11,59,19.80
2016,07,26,12,00,19.80
2016,07,26,12,01,19.80
2016,07,26,12,02,19.80
2016,07,26,12,03,19.90
2016,07,26,12,04,19.90
2016,07,26,12,05,20.00
2016,07,26,12,06,20.10
2016,07,26,12,07,20.10
2016,07,26,12,08,20.20
2016,07,26,12,09,20.30
2016,07,26,12,10,20.40
2016,07,26,12,11,20.50
2016,07,26,12,12,20.60
2016,07,26,12,13,20.60
2016,07,26,12,14,20.60
2016,07,26,12,15,20.70
2016,07,26,12,16,20.70
2016,07,26,12,17,20.80
2016,07,26,12,18,20.80
2016,07,26,12,19,20.80
2016,07,26,12,20,20.80
2016,07,26,12,21,20.80
2016,07,26,12,22,20.80
2016,07,26,12,23,20.80
2016,07,26,12,24,20.80
2016,07,26,12,25,20.90
2016,07,26,12,26,20.80
2016,07,26,12,27,20.80
2016,07,26,12,28,20.80
2016,07,26,12,29,20.80
2016,07,26,12,30,20.80
2016,07,26,12,31,20.80
2016,07,26,12,32,20.80
2016,07,26,12,33,20.80
2016,07,26,12,34,20.70
2016,07,26,12,35,20.70
2016,07,26,12,36,20.70
2016,07,26,12,37,20.80
2016,07,26,12,38,20.80
2016,07,26,12,39,20.80
2016,07,26,12,40,20.80
2016,07,26,12,41,20.80
2016,07,26,12,42,20.90
2016,07,26,12,43,20.90
2016,07,26,12,44,20.90
2016,07,26,12,45,20.90
2016,07,26,12,46,21.00
2016,07,26,12,47,21.10
2016,07,26,12,48,21.10
2016,07,26,12,49,21.10
2016,07,26,12,50,21.20
2016,07,26,12,51,21.20
2016,07,26,12,52,21.20
2016,07,26,12,53,21.20
2016,07,26,12,54,21.20
2016,07,26,12,55,21.10
2016,07,26,12,56,21.00
2016,07,26,12,57,20.90
2016,07,26,12,58,21.00
2016,07,26,12,59,21.00
2016,07,26,13,00,21.10
2016,07,26,13,01,21.20
2016,07,26,13,02,21.20
2016,07,26,13,03,21.20
2016,07,26,13,04,21.30
2016,07,26,13,05,21.30
2016,07,26,13,06,21.40
2016,07,26,13,07,21.50
2016,07,26,13,08,21.60
2016,07,26,13,09,21.60
2016,07,26,13,10,21.70
2016,07,26,13,11,21.60
2016,07,26,13,12,21.60
2016,07,26,13,13,21.60
2016,07,26,13,14,21.60
2016,07,26,13,15,21.70
2016,07,26,13,16,21.70
2016,07,26,13,17,21.70
2016,07,26,13,18,21.70
2016,07,26,13,19,21.60
2016,07,26,13,20,21.60
2016,07,26,13,21,21.60
2016,07,26,13,22,21.50
2016,07,26,13,23,21.60
2016,07,26,13,24,21.60
2016,07,26,13,25,21.70
2016,07,26,13,26,21.80
2016,07,26,13,27,21.90
2016,07,26,13,28,22.00
2016,07,26,13,29,22.10
2016,07,26,13,30,22.20
2016,07,26,13,31,22.30
2016,07,26,13,32,22.40
2016,07,26,13,33,22.40
2016,07,26,13,34,22.50
2016,07,26,13,35,22.50
2016,07,26,13,36,22.50
2016,07,26,13,37,22.40
2016,07,26,13,38,22.40
2016,07,26,13,39,22.40
2016,07,26,13,40,22.40
2016,07,26,13,41,22.40
2016,07,26,13,42,22.40
2016,07,26,13,43,22.30
2016,07,26,13,44,22.30
2016,07,26,13,45,22.30
2016,07,26,13,46,22.30
2016,07,26,13,47,22.30
2016,07,26,13,48,22.30
2016,07,26,13,49,22.30
2016,07,26,13,50,22.30
2016,07,26,13,51,22.30
2016,07,26,13,52,22.30
2016,07,26,13,53,22.30
2016,07,26,13,54,22.20
2016,07,26,13,55,22.10
2016,07,26,13,56,22.10
2016,07,26,13,57,22.00
2016,07,26,13,58,22.00
2016,07,26,13,59,21.90
2016,07,26,14,00,21.90
2016,07,26,14,01,21.80
2016,07,26,14,02,21.70
2016,07,26,14,03,21.60
2016,07,26,14,04,21.50
2016,07,26,14,05,21.50
2016,07,26,14,06,21.50
2016,07,26,14,07,21.50
2016,07,26,14,08,21.40
2016,07,26,14,09,21.30
2016,07,26,14,10,21.30
2016,07,26,14,11,21.30
2016,07,26,14,12,21.30
2016,07,26,14,13,21.30
2016,07,26,14,14,21.30
2016,07,26,14,15,21.30
2016,07,26,14,16,21.30
2016,07,26,14,17,21.40
2016,07,26,14,18,21.40
2016,07,26,14,19,21.50
2016,07,26,14,20,21.50
2016,07,26,14,21,21.50
2016,07,26,14,22,21.60
2016,07,26,14,23,21.60
2016,07,26,14,24,21.70
2016,07,26,14,25,21.70
2016,07,26,14,26,21.80
2016,07,26,14,27,21.80
2016,07,26,14,28,21.90
2016,07,26,14,29,21.90
2016,07,26,14,30,22.00
2016,07,26,14,31,22.10
2016,07,26,14,32,22.10
2016,07,26,14,33,22.20
2016,07,26,14,34,22.20
2016,07,26,14,35,22.10
2016,07,26,14,36,22.10
2016,07,26,14,37,22.10
2016,07,26,14,38,22.10
2016,07,26,14,39,22.20
2016,07,26,14,40,22.30
2016,07,26,14,41,22.30
2016,07,26,14,42,22.40
2016,07,26,14,43,22.40
2016,07,26,14,44,22.50
2016,07,26,14,45,22.60
2016,07,26,14,46,22.70
2016,07,26,14,47,22.80
2016,07,26,14,48,22.80
2016,07,26,14,49,22.90
2016,07,26,14,50,23.00
2016,07,26,14,51,23.10
2016,07,26,14,52,23.10
2016,07,26,14,53,23.20
2016,07,26,14,54,23.20
2016,07,26,14,55,23.20
2016,07,26,14,56,23.20
2016,07,26,14,57,23.20
2016,07,26,14,58,23.20
2016,07,26,14,59,23.20
2016,07,26,15,00,23.20
2016,07,26,15,01,23.20
2016,07,26,15,02,23.30
2016,07,26,15,03,23.30
2016,07,26,15,04,23.30
2016,07,26,15,05,23.30
2016,07,26,15,06,23.30
2016,07,26,15,07,23.30
2016,07,26,15,08,23.30
2016,07,26,15,09,23.20
2016,07,26,15,10,23.20
2016,07,26,15,11,23.20
2016,07,26,15,12,23.20
2016,07,26,15,13,23.20
2016,07,26,15,14,23.20
2016,07,26,15,15,23.30
2016,07,26,15,16,23.30
2016,07,26,15,17,23.30
2016,07,26,15,18,23.30
2016,07,26,15,19,23.40
2016,07,26,15,20,23.40
2016,07,26,15,21,23.40
2016,07,26,15,22,23.50
2016,07,26,15,23,23.60
2016,07,26,15,24,23.70
2016,07,26,15,25,23.80
2016,07,26,15,26,23.80
2016,07,26,15,27,23.90
2016,07,26,15,28,23.90
2016,07,26,15,29,23.90
2016,07,26,15,30,23.90
2016,07,26,15,31,23.90
2016,07,26,15,32,23.90
2016,07,26,15,33,23.90
2016,07,26,15,34,23.90
2016,07,26,15,35,23.90
2016,07,26,15,36,24.00
2016,07,26,15,37,24.00
2016,07,26,15,38,24.00
2016,07,26,15,39,23.90
2016,07,26,15,40,23.90
2016,07,26,15,41,23.90
2016,07,26,15,42,23.80
2016,07,26,15,43,23.80
2016,07,26,15,44,23.80
2016,07,26,15,45,23.80
2016,07,26,15,46,23.80
2016,07,26,15,47,23.90
2016,07,26,15,48,23.90
2016,07,26,15,49,23.80
2016,07,26,15,50,23.80
2016,07,26,15,51,23.80
2016,07,26,15,52,23.80
2016,07,26,15,53,23.80
2016,07,26,15,54,23.80
2016,07,26,15,55,23.90
2016,07,26,15,56,23.90
2016,07,26,15,57,23.90
2016,07,26,15,58,23.90
2016,07,26,15,59,23.80
2016,07,26,16,00,23.80
2016,07,26,16,01,23.80
2016,07,26,16,02,23.80
2016,07,26,16,03,23.90
2016,07,26,16,04,23.90
2016,07,26,16,05,24.00
2016,07,26,16,06,24.00
2016,07,26,16,07,24.10
2016,07,26,16,08,24.10
2016,07,26,16,09,24.10
2016,07,26,16,10,24.20
2016,07,26,16,11,24.20
2016,07,26,16,12,24.30
2016,07,26,16,13,24.30
2016,07,26,16,14,24.40
2016,07,26,16,15,24.40
2016,07,26,16,16,24.40
2016,07,26,16,17,24.50
2016,07,26,16,18,24.60
2016,07,26,16,19,24.60
2016,07,26,16,20,24.60
2016,07,26,16,21,24.60
2016,07,26,16,22,24.60
2016,07,26,16,23,24.60
2016,07,26,16,24,24.60
2016,07,26,16,25,24.60
2016,07,26,16,26,24.60
2016,07,26,16,27,24.60
2016,07,26,16,28,24.60
2016,07,26,16,29,24.60
2016,07,26,16,30,24.70
2016,07,26,16,31,24.70
2016,07,26,16,32,24.80
2016,07,26,16,33,24.80
2016,07,26,16,34,24.90
2016,07,26,16,35,25.00
2016,07,26,16,36,25.00
2016,07,26,16,37,25.10
2016,07,26,16,38,25.10
2016,07,26,16,39,25.10
2016,07,26,16,40,25.10
2016,07,26,16,41,25.20
2016,07,26,16,42,25.20
2016,07,26,16,43,25.30
2016,07,26,16,44,25.30
2016,07,26,16,45,25.30
2016,07,26,16,46,25.30
2016,07,26,16,47,25.30
2016,07,26,16,48,25.30
2016,07,26,16,49,25.30
2016,07,26,16,50,25.30
2016,07,26,16,51,25.30
2016,07,26,16,52,25.30
2016,07,26,16,53,25.30
2016,07,26,16,54,25.30
2016,07,26,16,55,25.40
2016,07,26,16,56,25.40
2016,07,26,16,57,25.40
2016,07,26,16,58,25.40
2016,07,26,16,59,25.40
2016,07,26,17,00,25.40
2016,07,26,17,01,25.30
2016,07,26,17,02,25.30
2016,07,26,17,03,25.40
2016,07,26,17,04,25.50
2016,07,26,17,05,25.50
2016,07,26,17,06,25.60
2016,07,26,17,07,25.60
2016,07,26,17,08,25.60
2016,07,26,17,09,25.70
2016,07,26,17,10,25.70
2016,07,26,17,11,25.80
2016,07,26,17,12,25.80
2016,07,26,17,13,25.80
2016,07,26,17,14,25.70
2016,07,26,17,15,25.70
2016,07,26,17,16,25.70
2016,07,26,17,17,25.70
2016,07,26,17,18,25.70
2016,07,26,17,19,25.70